Regional Weather Roundup
Issued by NWS

Home | Current Version | Previous Version | Text Only | Print | Product List | Glossary Off
Versions: 1 2 3 4 5 6 7 8 9 10 11 12 13 14 15 16 17 18 19 20 21 22 23 24 25 26 27 28 29 30 31 32 33 34 35 36 37 38 39 40 41 42 43 44 45 46 47 48 49 50

000
ASUS43 KOAX 191910
RWRNE

WEATHER ROUNDUP FOR NEBRASKA
NATIONAL WEATHER SERVICE OMAHA NE
100 PM CST SUN NOV 19 2017

NOTES: SATELLITE DATA IS BEING USED TO AUGMENT CLOUD COVER ABOVE
       12000 FEET.
       "FAIR" INDICATES FEW OR NO CLOUDS BELOW 12,000 FEET WITH NO
       SIGNIFICANT WEATHER AND/OR OBSTRUCTIONS TO VISIBILITY.


NEZ001>004-019>022-054>056-192000-
NEBRASKA PANHANDLE

CITY           SKY/WX    TMP DP  RH WIND       PRES   REMARKS
SCOTTSBLUFF    CLOUDY    55   8  15 W20G32    29.99F
ALLIANCE       CLOUDY    54  15  21 W17       29.99F
CHADRON        CLOUDY    51  18  27 CALM      29.96F
GORDON         FAIR      55  15  21 W16       29.95F
KIMBALL        CLOUDY    58  12  16 W16G23    30.03F
SIDNEY         CLOUDY    58  13  17 W18G25    30.03F
$$

NEZ057>060-069>072-079>082-192000-
SOUTHWEST NEBRASKA

CITY           SKY/WX    TMP DP  RH WIND       PRES   REMARKS
NORTH PLATTE   SUNNY     56  23  27 SW12      30.03F
IMPERIAL       SUNNY     57  20  23 SW10      30.04F
LEXINGTON      SUNNY     54  23  30 SW21      30.04F
MCCOOK         SUNNY     57  23  26 SW14      30.06F
OGALLALA       SUNNY     56  21  26 SW8       30.03F
$$

NEZ005>010-023>029-035>040-094-192000-
NORTH CENTRAL NEBRASKA

CITY           SKY/WX    TMP DP  RH WIND       PRES   REMARKS
VALENTINE      SUNNY     56  21  25 W16       29.95F
AINSWORTH      SUNNY     53  24  32 W10G17    29.96F
BROKEN BOW     SUNNY     53  23  31 SW17      30.01F
O`NEILL        SUNNY     53  26  35 SW13      29.97F
ORD            SUNNY     53  22  29 SW16      30.01F
THEDFORD       SUNNY     55  22  27 W10       29.98F
$$

NEZ041-046>049-061>064-073>077-083>087-192000-
SOUTH CENTRAL NEBRASKA

CITY           SKY/WX    TMP DP  RH WIND       PRES   REMARKS
GRAND ISLAND   SUNNY     53  28  38 W15       30.06F
AURORA         SUNNY     53  26  34 SW16      30.06F
HASTINGS       SUNNY     54  24  31 SW9G18    30.07F
HEBRON         SUNNY     54  26  33 SW9       30.11F
HOLDREGE       SUNNY     53  27  36 SW16      30.06F
KEARNEY        SUNNY     53  23  31 SW17G25   30.06F
YORK           SUNNY     54  27  35 SW13      30.07F
$$

NEZ011>018-030>034-042>045-192000-
NORTHEAST NEBRASKA

CITY           SKY/WX    TMP DP  RH WIND       PRES   REMARKS
NORFOLK        SUNNY     53  24  32 SW16      30.00F
ALBION         SUNNY     52  24  33 W15       30.02F
BLAIR          SUNNY     50  30  47 S17       30.07F
COLUMBUS       SUNNY     52  28  39 SW13      30.05F
FREMONT        SUNNY     50  29  45 S12       30.07F
TEKAMAH        SUNNY     50  30  46 S15       30.06F
WAYNE          SUNNY     53  20  28 SW16      30.01F
$$

NEZ050>053-065>068-078-088>093-192000-
SOUTHEAST NEBRASKA

CITY           SKY/WX    TMP DP  RH WIND       PRES   REMARKS
LINCOLN        SUNNY     53  26  35 SW16      30.11F
OMAHA EPPLEY   MOSUNNY   49  29  46 S12       30.09F
BEATRICE       SUNNY     53  26  35 SW15      30.11F
FALLS CITY     SUNNY     51  29  42 S14       30.15F
NEBRASKA CITY  SUNNY     50  31  47 SW15      30.11F
PLATTSMOUTH    SUNNY     49  32  50 S13       30.10F
$$

NEZ044-045-051>053-067-192000-
OMAHA AREA

CITY           SKY/WX    TMP DP  RH WIND       PRES   REMARKS
OMAHA EPPLEY   MOSUNNY   49  29  46 S12       30.09F
BLAIR          SUNNY     50  30  47 S17       30.07F
FREMONT        SUNNY     50  29  45 S12       30.07F
MILLARD        SUNNY     52  31  45 S12       30.10F
OFFUTT AFB     SUNNY     50  29  44 S10       30.09F
PLATTSMOUTH    SUNNY     49  32  50 S13       30.10F
WAHOO          FAIR      52  27  38 SW14      30.08F
$$




USA.gov is the U.S. government's official web portal to all federal, state and local government web resources and services.